Regional Weather Roundup
Issued by NWS Upton, NY

Home | Current Version | Previous Version | Text Only | Print | Product List | Glossary On
Versions: 1 2 3 4 5 6 7 8 9 10 11 12 13 14 15 16 17 18 19 20 21 22 23 24 25 26 27 28 29 30 31 32 33 34 35 36 37 38 39 40 41 42 43 44 45 46 47 48 49
000
ASUS41 KOKX 151005
RWROKX

REGIONAL WEATHER ROUNDUP
NATIONAL WEATHER SERVICE NEW YORK NY
600 AM EDT MON SEP 15 2014

NOTE: "FAIR" INDICATES FEW OR NO CLOUDS BELOW 12,000 FEET WITH NO
SIGNIFICANT WEATHER AND/OR OBSTRUCTIONS TO VISIBILITY.

NYZ071-072-176-178-NJZ106-104-151100-
NEW YORK CITY METRO AREA


CITY           SKY/WX    TMP DP  RH WIND       PRES   REMARKS
CENTRAL PARK   CLEAR     56  42  59 VRB3      30.26R
LAGUARDIA APRT PTCLDY    55  44  66 NE9       30.23R
KENNEDY INTL   PTCLDY    56  48  74 N8        30.23R
NEWARK/LIBERTY PTCLDY    53  45  74 N10       30.23R
BRNX BOT. GARD   N/A     52  43  71 NE6       30.23S
TETERBORO      CLEAR     50  44  80 NW3       30.23R
$$

NYZ177-179-078>081-151100-
LONG ISLAND NEW YORK

CITY           SKY/WX    TMP DP  RH WIND       PRES   REMARKS
FARMINGDALE    MOCLDY    55  50  83 N9        30.22R
ISLIP          MOCLDY    54  50  86 N5        30.20R
SHIRLEY        MOCLDY    52  50  93 CALM      30.22R
WESTHAMPTON    MOCLDY    55  51  86 N9        30.22R
MONTAUK POINT    N/A     57  52  83 NE6       30.22R
$$

NYZ052-065-067-151100-
HUDSON VALLEY

CITY           SKY/WX    TMP DP  RH WIND       PRES   REMARKS
WHITE PLAINS   PTCLDY    51  42  71 N5        30.22R
NEWBURGH       MOCLDY    48  48 100 CALM      30.25S
MONTGOMERY     MOCLDY    45  43  93 CALM      30.25R
POUGHKEEPSIE   CLOUDY    46  44  93 CALM      30.25R
ALBANY         PTCLDY    42  40  92 CALM      30.26R
$$

NJZ001-105-106-008-010-013-015-019>022-104-151100-
NEW JERSEY

CITY           SKY/WX    TMP DP  RH WIND       PRES   REMARKS
NEWARK/LIBERTY PTCLDY    53  45  74 N10       30.23R
TETERBORO      CLEAR     50  44  80 NW3       30.23R
CALDWELL       MOCLDY    49  44  83 NE3       30.24R
MORRISTOWN     CLEAR     41  39  93 CALM      30.24R
SOMERVILLE     CLEAR     43  41  93 CALM      30.22R
LINDEN         FAIR      58  48  68 N7        30.25R
SUSSEX         PTCLDY    43  40  89 CALM      30.25R
ANDOVER          N/A     43  43 100 CALM      30.25R
TRENTON        CLEAR     49  46  90 N7        30.22R
MILLVILLE      CLEAR     46  45  96 W3        30.23R
ATLANTIC CITY  CLEAR     48  46  93 CALM      30.22R
WRIGHTSTOWN    CLEAR     49  48  97 NW5       30.20R
TOMS RIVER     CLEAR     43  41  93 CALM      30.22R
BELMAR         CLEAR     48  43  81 NW6       30.21R
$$

PAZ047>061-062-071-151100-
EASTERN PENNSYLVANIA

CITY           SKY/WX    TMP DP  RH WIND       PRES   REMARKS
PHILADELPHIA   CLEAR     53  46  77 N6        30.23R
ALLENTOWN      CLEAR     43  42  97 CALM      30.25R
SCRANTON       CLOUDY    46  41  82 E6        30.24S
$$

CTZ002-004>006-009-010-012-RIZ004-006-007-MAZ004-011-015-151100-
SOUTHERN NEW ENGLAND
 IN CT

CITY           SKY/WX    TMP DP  RH WIND       PRES   REMARKS
BRADLEY INTL   MOCLDY    46  42  86 N5        30.25R
HARTFORD       CLEAR     46  42  86 VRB5      30.25R
DANBURY        CLEAR     40  39  97 CALM      30.26R
WTRBRY/OXFORD  CLEAR     46  37  71 N7        30.25R
BRIDGEPORT     CLEAR     50  44  80 N7        30.23R
MERIDEN        CLEAR     47  43  86 N5        30.25R
NEW HAVEN      PTCLDY    50  43  77 N9        30.23R
CHESTER        FAIR      46  45  93 N7        30.24R
GROTON         PTCLDY    47  44  90 N12       30.22R
WILLIMANTIC    MOCLDY    44  42  93 CALM      30.24R

 IN RI

CITY           SKY/WX    TMP DP  RH WIND       PRES   REMARKS
PROVIDENCE     MOCLDY    49  43  80 N7        30.23S
BLOCK ISLAND   CLEAR     54  48  82 N5        30.21R
WESTERLY       CLEAR     47  44  90 N5        30.23R

 IN MA

CITY           SKY/WX    TMP DP  RH WIND       PRES   REMARKS
BOSTON         PTCLDY    48  41  76 N8        30.23S
WORCESTER      CLOUDY    46  39  76 N8        30.23R
WESTFIELD      CLOUDY    46  43  89 CALM      30.25R
PROVINCETOWN   PTCLDY    45  43  93 CALM      30.22R
NANTUCKET      MOCLDY    52  47  83 NE5       30.21R
$$

ANZ330-335-338-340-345-350-353-355-151100-
COASTAL MARINE OBSERVATIONS


STATION/POSITION TIME  SKY/WX   TEMP    WIND        PRES    VSBY  WAVE
                                AIR SEA DIR/SP/G                  HT/PER
                 (UTC)          (F)     (DEG/KT/KT) (MB)    (MI)  (FT/S)
NY HARB ENTRANCE NOT AVBL
4S FIRE IS       NOT AVBL
23SW MTP         1000                                 N/A           1/ 7
HUDSON CANYON    1000            65 74  360/  6/ 12 1022.3          2/ 7
EXECUTION ROCKS  1000            57 71   20/ 14/ 17   N/A
WESTERN LI SOUND 1000            56      30/ 10/ 14   N/A           1/ 3
CENTRAL LI SOUND 1000            55 71   10/ 14/ 17   N/A           1/ 3
EASTERN LI SOUND 0900            53 66   20/ 14/ 17   N/A
ROBBINS REEF     1000            56     350/ 10/ 12 1022.1
$$


>>>>>>>>>>>>>>>>>>>>>>>>>>>> KEY <<<<<<<<<<<<<<<<<<<<<<<<<<<
>                                                          <
>     SKY/WX - SKY CONDITION/PRESENT WEATHER               <
>     TMP    - TEMPERATURE IN FAHRENHEIT                   <
>     DP     - DEWPOINT IN FAHRENHEIT                      <
>     RH     - RELATIVE HUMIDITY IN PERCENT                <
>     WIND   - DIRECTION AND SPEED IN MPH                  <
>     PRES   - MEAN SEA LEVEL PRESSURE IN INCHES OF HG     <
>     WCI    - WIND CHILL INDEX                            <
>     VSB    - VISIBILITY IN MILES                         <
>     HX     - HEAT INDEX                                  <
>     TC     - TEMPERATURE IN CELSIUS                      <
>     VRB    - VARIABLE WIND DIRECTION                     <
>                                                          <
>>>>>>>>>>>>>>>>>>>>>>>>>>>> KEY <<<<<<<<<<<<<<<<<<<<<<<<<<<




USA.gov is the U.S. government's official web portal to all federal, state and local government web resources and services.